Regional Weather Roundup
Issued by NWS

Home | Current Version | Previous Version | Graphics & Text | Print | Product List | Glossary On
Versions: 1 2 3 4 5 6 7 8 9 10 11 12 13 14 15 16 17 18 19 20 21 22 23 24 25 26 27 28
000
ASUS45 KSLC 260310
RWRUT

UTAH REGIONAL WEATHER ROUNDUP
NATIONAL WEATHER SERVICE SALT LAKE CITY UT
800 PM MST SAT FEB 25 2017

UTZ001>011-023>025-260400-

NORTHERN UTAH

CITY           SKY/WX    TMP DP  RH WIND       PRES   REMARKS
BRIGHAM CITY     N/A     27  19  74 SE3       29.99S
HILL AFB       PTCLDY    25  16  68 S8        29.97S WCI  16
LOGAN          PTCLDY    22  18  85 CALM      29.98S
OGDEN          CLEAR     26  17  68 S3        29.97F
SALT LAKE CITY PTCLDY    29  23  78 S6        29.99S WCI  23
TOOELE VALLEY  CLEAR     25  19  80 S7        30.00S WCI  17
WENDOVER       CLEAR     28  12  50 NW6       29.99S WCI  22
HEBER CITY     PTCLDY    10   7  85 SE5       29.94S WCI   2
WEST JORDAN    PTCLDY    28  27  93 SW3       30.00S

$$

UTZ011>015-024>027-260400-

CENTRAL/NORTHEAST UTAH

CITY           SKY/WX    TMP DP  RH WIND       PRES   REMARKS
PROVO AIRPORT  CLEAR     26  15  63 CALM      30.00S
MOAB/CANYONLAN CLOUDY    35  14  42 NW6       29.91R WCI  30
DELTA          PTCLDY    28  21  74 N6        29.97F WCI  22
PRICE          PTCLDY    25  12  58 NW9       29.90S WCI  15
RICHFIELD      CLOUDY    28  21  74 E9        29.98R WCI  20
ROOSEVELT      CLEAR     27  14  59 W6        29.94S WCI  20
VERNAL         CLEAR     17  10  74 NW6       29.92S WCI   9

$$

UTZ013>016-019>022-027-260400-

SOUTHERN UTAH

CITY           SKY/WX    TMP DP  RH WIND       PRES   REMARKS
BRYCE CANYON   MOCLDY    20  12  71 W5        29.87F WCI  13
CEDAR CITY     MOCLDY    27  16  63 SW5       29.90R WCI  22
MILFORD        LGT SNOW  29  24  82 N14       29.95R WCI  18
HANKSVILLE     MOCLDY    36  12  38 N10       29.94S WCI  28
KANAB          CLEAR     37  16  41 S2        29.96S
BLANDING       CLOUDY    30  13  49 NW7       29.95F WCI  23

$$

REGIONAL REPORTS     COLORADO/ARIZONA

CITY           SKY/WX    TMP DP  RH WIND       PRES   REMARKS
CRAIG, CO      CLOUDY    20  13  74 W10       29.87S WCI   9
GRAND JUNCTION CLOUDY    33  12  41 NW8       29.91R WCI  26
RIFLE, CO      CLOUDY    28  14  55 NW3       29.89R
MONTROSE, CO   CLOUDY    30   7  37 CALM      29.90S
CORTEZ, CO     CLOUDY    30  14  51 CALM      29.90S
COLORADO CITY    N/A     36  21  55 CALM      29.96S
PAGE, AZ       CLOUDY    44   7  21 SW3       29.89S
GRAND CANYON   CLOUDY    33  14  45 SW5       29.94S WCI  29
KINGMAN, AZ    CLOUDY    47   5  18 S13       29.96S
FLAGSTAFF, AZ  CLOUDY    33   7  33 SW17      29.95R WCI  22

$$

REGIONAL REPORTS    NEVADA/IDAHO/WYOMING

CITY           SKY/WX    TMP DP  RH WIND       PRES   REMARKS
LAS VEGAS, NV  CLOUDY    51  16  24 CALM      29.92F
ELY, NY        CLOUDY    22  19  89 MISG      29.93S
ELKO, NV       CLEAR     26  15  63 NW3       29.96F
POCATELLO, ID  CLEAR     19  10  68 S12       29.96F WCI   7
BURLEY, ID     CLEAR     24  13  62 SW7       29.97R WCI  16
FORT BRIDGER,    N/A     11  10  95 W16       29.88S WCI  -6
EVANSTON, WY   CLEAR      8   3  80 W14       29.87S WCI  -8
ROCK SPRINGS,  CLEAR     12   5  73 W16       29.82S WCI  -5

$$




USA.gov is the U.S. government's official web portal to all federal, state and local government web resources and services.